Tracking 32420 objects as of 9-Dec-2025
HD Live streaming from Space Station
objects crossing your sky now

STARLINK-3870

Track STARLINK-3870 now!
10-day predictions
STARLINK-3870 is classified as:


NORAD ID: 52451
Int'l Code: 2022-049A
Perigee: 546.0 km
Apogee: 547.8 km
Inclination: 53.2 °
Period: 95.4 minutes
Semi major axis: 6917 km
RCS: Unknown
Launch date: May 6, 2022
Source: United States (US)
Launch site: AIR FORCE EASTERN TEST RANGE (AFETR)
Your satellite tracking list
Your tracking list is empty




NASA's NSSDC Master Catalog

Two Line Element Set (TLE):
1 52451U 22049A   25342.63183110  .00000405  00000-0  43536-4 0  9997
2 52451  53.2184 117.8969 0001309  86.1559 273.9583 15.08839293198362
Source of the keplerian elements: AFSPC